Location: Peebles
(55.6412°N, 3.1714°W)
Time: 22:11:09
(UTC+00:00)

deb Agena D - Pass Details

Date: 26 September 2023
Orbit: 794 x 979 km, 99.8° (Epoch: 28 November)

Event Time Altitude Azimuth Distance (km) Brightness Sun altitude
Rises 04:28:28 0° 18° (NNE) 3,694 10.3 -21.8°
Reaches altitude 10° 04:32:19 10° 354° (N) 2,745 9.2 -21.3°
Maximum altitude 04:35:07 14° 327° (NNW) 2,487 8.6 -21.0°
Drops below altitude 10° 04:37:53 10° 300° (WNW) 2,728 8.6 -20.6°
Enters shadow 04:37:54 10° 300° (WNW) 2,729 8.6 -20.6°
